Location: Trois-Rivi�res
(46.3500°N, 72.5500°W)
Time: 00:55:48
(UTC-04:00)

Amateur Radio Satellites - All Passes

Search period start: 21 October 2017 00:25
Search period end: 22 October 2017 00:25
Location: Trois-Rivi�res, 46.3500°N, 72.5500°W

Satellite Date Start Highest point End Downlink Frequencies (MHz)
Time Altitude Azimuth
AIST 2D 21 Oct 00:28:06 00:31:32 60° 286° (WNW) 00:34:56 435.315
FO-29 21 Oct 00:32:04 00:34:17 12° 311° (NW) 00:36:36 435.910
TIGRISAT 21 Oct 00:33:38 00:35:51 13° 302° (WNW) 00:38:01 435.000
SPROUT 21 Oct 00:39:23 00:43:37 61° 259° (W) 00:47:54 437.525
DX 1 21 Oct 00:56:50 01:00:50 39° 69° (ENE) 01:04:53 434.975-435.025
RS-15 21 Oct 00:58:13 01:10:21 69° 118° (ESE) 01:22:27 29.354- 29.394
Oscar 19 21 Oct 01:05:12 01:07:32 13° 88° (E) 01:09:52 437.125/150
EO-79 21 Oct 01:07:27 01:11:44 76° 284° (WNW) 01:15:58 145.935-145.965
POLYITAN 1 21 Oct 01:12:22 01:16:37 68° 286° (WNW) 01:20:49 437.675
UKube-1 21 Oct 01:19:41 01:23:44 43° 70° (ENE) 01:27:50 .
VELOX 1 21 Oct 01:28:54 01:32:39 28° 265° (W) 01:36:27 145.980
QB50P2 21 Oct 01:32:56 01:36:54 38° 291° (WNW) 01:40:49 145.880/145.840
50 SAT 21 Oct 01:34:56 01:38:09 61° 259° (WSW) 01:41:25 437.505
NANOSAT C BR1 21 Oct 01:35:31 01:39:34 43° 289° (WNW) 01:43:34 145.865
Gurwin Techsat 1B 21 Oct 01:39:41 01:43:32 20° 91° (E) 01:47:22 435.225
DUCHIFAT 1 21 Oct 01:46:01 01:49:58 38° 291° (WNW) 01:53:53 145.980
BUGSAT 1 21 Oct 01:51:16 01:55:31 67° 103° (ESE) 01:59:40 437.445
MOZHAYETS 4 21 Oct 02:05:33 02:09:04 22° 63° (ENE) 02:12:36
DX 1 21 Oct 02:33:45 02:37:09 22° 266° (W) 02:40:35 434.975-435.025
ITUPSAT 1 21 Oct 02:39:11 02:43:40 41° 68° (ENE) 02:48:11 437.325
M-CUBED/EXP-1 PRIME 21 Oct 02:41:59 02:45:30 61° 107° (ESE) 02:49:15 437.505
Oscar 19 21 Oct 02:42:23 02:47:33 86° 285° (WNW) 02:52:40 437.125/150
BEESAT 21 Oct 02:54:03 02:58:44 57° 71° (ENE) 03:03:27 436.000
UKube-1 21 Oct 02:56:47 02:59:57 20° 267° (W) 03:03:09 .
NO-84 21 Oct 03:02:38 03:06:32 34° 134° (SE) 03:10:23 435.350 FM
RS-15 21 Oct 03:11:40 03:23:35 50° 324° (NW) 03:35:22 29.354- 29.394
ITAMSAT 1 21 Oct 03:17:50 03:20:45 15° 89° (E) 03:23:38 435.822/435.867
Gurwin Techsat 1B 21 Oct 03:18:39 03:23:54 61° 289° (WNW) 03:29:08 435.225
BUGSAT 1 21 Oct 03:28:03 03:30:19 14° 300° (WNW) 03:32:34 437.445
KKS-1 21 Oct 03:30:27 03:32:00 12° 57° (ENE) 03:33:35 437.445
MOZHAYETS 4 21 Oct 03:41:26 03:45:55 48° 261° (W) 03:50:25
CUBESAT XI-V 21 Oct 03:54:10 03:58:41 55° 72° (ENE) 04:03:12 437.345
STARS 21 Oct 04:02:28 04:02:59 10° 56° (NE) 04:03:32 437.465
AO-7 21 Oct 04:03:56 04:11:57 50° 101° (E) 04:19:56 .
ITUPSAT 1 21 Oct 04:17:38 04:21:38 26° 266° (W) 04:25:39 437.325
M-CUBED/EXP-1 PRIME 21 Oct 04:18:01 04:19:35 13° 303° (WNW) 04:21:11 437.505
Oscar 19 21 Oct 04:23:30 04:26:06 14° 304° (NW) 04:28:41 437.125/150
BEESAT 21 Oct 04:33:34 04:36:52 18° 269° (W) 04:40:11 436.000
O/OREOS (USA 219) 21 Oct 04:39:06 04:41:03 12° 43° (NE) 04:43:01 437.305
NO-84 21 Oct 04:39:38 04:43:51 53° 331° (NNW) 04:47:58 435.350 FM
ITAMSAT 1 21 Oct 04:55:34 05:00:50 80° 287° (WNW) 05:06:04 435.822/435.867
Gurwin Techsat 1B 21 Oct 05:01:39 05:02:48 11° 308° (NW) 05:03:57 435.225
KKS-1 21 Oct 05:03:24 05:07:50 87° 75° (ENE) 05:12:19 437.445
DOVE 4 21 Oct 05:24:58 05:29:30 34° 96° (E) 05:34:12 437.250
RS-15 21 Oct 05:29:09 05:39:48 32° 357° (N) 05:50:09 29.354- 29.394
CUBESAT XI-V 21 Oct 05:33:19 05:36:24 18° 269° (W) 05:39:30 437.345
STARS 21 Oct 05:34:08 05:38:31 77° 75° (ENE) 05:42:57 437.465
XW-2F 21 Oct 05:53:33 05:54:46 11° 89° (E) 05:55:58 145.980 - 146.000
AO-7 21 Oct 05:56:56 06:04:38 45° 301° (WNW) 06:12:21 .
LilacSat-2 21 Oct 05:59:22 06:01:41 16° 91° (E) 06:03:59 437.200
NUDT-PHONESAT 21 Oct 06:03:41 06:04:37 11° 89° (E) 06:05:34 437.300
XW-2D 21 Oct 06:05:24 06:07:57 17° 92° (E) 06:10:29 145.860 - 145.880
SO-50 21 Oct 06:14:26 06:17:54 22° 114° (ESE) 06:21:23 436.795
O/OREOS (USA 219) 21 Oct 06:16:42 06:21:20 73° 64° (ENE) 06:25:55 437.305
NO-84 21 Oct 06:18:24 06:21:57 25° 352° (N) 06:25:20 435.350 FM
XW-2B 21 Oct 06:18:30 06:21:32 23° 94° (E) 06:24:34 145.730 - 145.750
ITAMSAT 1 21 Oct 06:36:57 06:39:27 14° 306° (NW) 06:41:58 435.822/435.867
STRAND 1 21 Oct 06:39:44 06:44:28 39° 67° (ENE) 06:49:14 437.568
XW-2C 21 Oct 06:41:24 06:44:59 43° 99° (E) 06:48:33 145.795 - 145.815
KKS-1 21 Oct 06:44:24 06:45:01 10° 273° (W) 06:45:39 437.445
PCSat 21 Oct 06:58:07 06:59:27 11° 101° (E) 07:00:47 145.827
HO-68 21 Oct 06:58:22 07:04:09 25° 92° (E) 07:09:53 435.675
DOVE 4 21 Oct 07:02:41 07:07:08 34° 292° (WNW) 07:11:46 437.250
CUTE-I 21 Oct 07:09:50 07:15:12 65° 102° (ESE) 07:20:32 437.470
STARS 21 Oct 07:13:47 07:15:24 12° 272° (W) 07:17:02 437.465
FO-29 21 Oct 07:17:05 07:20:32 18° 55° (NE) 07:24:11 435.910
CUBEBUG 2 21 Oct 07:21:03 07:24:17 18° 90° (E) 07:27:28 437.445
KAITUO 1B 21 Oct 07:22:20 07:26:02 82° 283° (WNW) 07:29:43 145.475/437.950
XW-2F 21 Oct 07:25:34 07:29:15 58° 286° (WNW) 07:32:54 145.980 - 146.000
LilacSat-2 21 Oct 07:32:36 07:36:11 42° 288° (WNW) 07:39:44 437.200
NUDT-PHONESAT 21 Oct 07:35:15 07:38:52 58° 286° (WNW) 07:42:27 437.300
XW-2D 21 Oct 07:38:48 07:42:16 37° 289° (WNW) 07:45:43 145.860 - 145.880
RS-15 21 Oct 07:44:49 07:56:19 44° 30° (NNE) 08:07:14 29.354- 29.394
YUBILEINY 21 Oct 07:46:59 07:51:34 16° 73° (ENE) 07:56:09 435.215
CUTE 1.7 + AOD 2 21 Oct 07:47:30 07:51:37 52° 99° (E) 07:55:44 437.475
AO-7 21 Oct 07:51:57 07:55:19 13° 325° (NW) 07:58:41 .
XW-2B 21 Oct 07:52:29 07:55:42 28° 292° (WNW) 07:58:55 145.730 - 145.750
SEEDS 21 Oct 07:53:08 07:57:01 37° 97° (E) 08:00:54 437.485
SO-50 21 Oct 07:53:40 07:58:02 51° 312° (NW) 08:02:28 436.795
NO-84 21 Oct 07:56:44 08:00:17 28° 13° (NNE) 08:03:38 435.350 FM
UWE-3 21 Oct 07:57:05 08:00:46 24° 93° (E) 08:04:20 435.000/436.395/437.385
O/OREOS (USA 219) 21 Oct 07:57:54 08:00:06 13° 262° (W) 08:02:19 437.305
UNISAT 6 21 Oct 08:08:31 08:09:56 11° 56° (NE) 08:11:22 437.425
Oscar 11 21 Oct 08:10:27 08:11:10 10° 87° (E) 08:11:52 .
AAUSAT CUBESAT 2 21 Oct 08:14:38 08:18:14 29° 95° (E) 08:21:51 437.432
XW-2C 21 Oct 08:16:29 08:18:50 16° 296° (WNW) 08:21:11 145.795 - 145.815
STRAND 1 21 Oct 08:19:14 08:23:43 30° 265° (W) 08:28:15 437.568
TIGRISAT 21 Oct 08:21:58 08:24:21 14° 58° (ENE) 08:26:45 435.000
PCSat 21 Oct 08:36:28 08:41:51 73° 119° (ESE) 08:47:18 145.827
HO-68 21 Oct 08:45:18 08:52:29 71° 291° (WNW) 08:59:37 435.675
AO-73 21 Oct 08:46:00 08:50:02 35° 96° (E) 08:53:57 145.935
CUTE-I 21 Oct 08:50:49 08:54:45 21° 301° (WNW) 08:58:42 437.470
XW-2A 21 Oct 08:55:22 08:58:41 64° 286° (WNW) 09:01:59 145.665 - 145.685
CUBEBUG 2 21 Oct 08:56:41 09:01:14 52° 288° (WNW) 09:05:38 437.445
PRISM 21 Oct 08:56:57 08:58:45 13° 59° (ENE) 09:00:34 437.425
FO-29 21 Oct 08:59:37 09:04:52 79° 257° (WSW) 09:10:37 435.910
ZACube-1 21 Oct 09:08:24 09:12:48 70° 102° (ESE) 09:17:04 437.345
CUTE 1.7 + AOD 2 21 Oct 09:24:20 09:27:04 17° 297° (WNW) 09:29:47 437.475
SEEDS 21 Oct 09:29:16 09:32:30 22° 295° (WNW) 09:35:44 437.485
UWE-3 21 Oct 09:33:08 09:37:20 38° 291° (WNW) 09:41:24 435.000/436.395/437.385
nSIGHT-1 21 Oct 09:33:51 09:36:15 20° 138° (SE) 09:38:41 .
NO-84 21 Oct 09:34:12 09:38:10 80° 34° (NE) 09:41:48 435.350 FM
DELFI C3 21 Oct 09:34:46 09:37:33 18° 92° (E) 09:40:18 145.870
SO-50 21 Oct 09:37:18 09:39:33 13° 334° (NNW) 09:41:48 436.795
YUBILEINY 21 Oct 09:38:06 09:46:44 74° 94° (E) 09:55:26 435.215
UNISAT 6 21 Oct 09:41:10 09:45:49 77° 76° (ENE) 09:50:33 437.425
Oscar 11 21 Oct 09:43:34 09:47:53 82° 287° (WNW) 09:52:11 .
AAUSAT CUBESAT 2 21 Oct 09:50:07 09:53:38 27° 292° (WNW) 09:57:08 437.432
TIGRISAT 21 Oct 09:55:42 10:00:22 84° 257° (WSW) 10:05:06 435.000
RS-15 21 Oct 09:57:59 10:09:59 79° 239° (WSW) 10:21:17 29.354- 29.394
EO-88 21 Oct 10:05:06 10:07:46 19° 93° (E) 10:10:26 145.990 - 145.960
ISS 21 Oct 10:08:21 10:11:21 34° 143° (SE) 10:14:21 437.550
Max Valier Satellite 21 Oct 10:16:33 10:19:59 36° 97° (E) 10:23:22 145.860
PCSat 21 Oct 10:21:24 10:25:48 25° 320° (NW) 10:30:14 145.827
AO-73 21 Oct 10:22:32 10:26:05 25° 295° (WNW) 10:29:34 145.935
EO-79 21 Oct 10:28:49 10:30:53 13° 60° (ENE) 10:32:58 145.935-145.965
PRISM 21 Oct 10:29:27 10:33:29 71° 258° (WSW) 10:37:33 437.425
POLYITAN 1 21 Oct 10:33:26 10:35:51 15° 61° (ENE) 10:38:17 437.675
HO-68 21 Oct 10:34:38 10:39:00 17° 312° (NW) 10:43:21 435.675
ZACube-1 21 Oct 10:46:09 10:48:30 14° 300° (WNW) 10:50:50 437.345
FO-29 21 Oct 10:50:38 10:51:11 10° 278° (W) 10:51:44 435.910
QB50P2 21 Oct 10:52:33 10:56:00 24° 65° (ENE) 10:59:28 145.880/145.840
NANOSAT C BR1 21 Oct 10:55:01 10:58:14 21° 64° (ENE) 11:01:27 145.865
AIST 2D 21 Oct 11:04:12 11:07:41 67° 74° (ENE) 11:11:10 435.315
DUCHIFAT 1 21 Oct 11:04:59 11:08:21 23° 65° (ENE) 11:11:44 145.980
DELFI C3 21 Oct 11:08:44 11:12:28 40° 289° (WNW) 11:16:11 145.870
nSIGHT-1 21 Oct 11:09:04 11:12:16 71° 336° (NNW) 11:15:28 .
NO-84 21 Oct 11:12:41 11:15:00 16° 234° (SW) 11:17:13 435.350 FM
UNISAT 6 21 Oct 11:20:54 11:23:05 13° 272° (W) 11:25:16 437.425
Oscar 11 21 Oct 11:22:41 11:23:17 10° 303° (WNW) 11:23:53 .
BEESAT 3 21 Oct 11:32:28 11:35:36 22° 114° (ESE) 11:38:45 437.485
YUBILEINY 21 Oct 11:37:11 11:44:24 28° 297° (WNW) 11:51:43 435.215
EO-88 21 Oct 11:38:14 11:41:29 31° 290° (WNW) 11:44:43 145.990 - 145.960
ISS 21 Oct 11:44:35 11:47:46 49° 341° (NNW) 11:50:57 437.550
Max Valier Satellite 21 Oct 11:50:59 11:53:33 18° 295° (WNW) 11:56:06 145.860
ESTCUBE 1 21 Oct 11:54:02 11:58:11 35° 97° (E) 12:02:18 437.505/2401.250
M-CUBED/EXP-1 PRIME 21 Oct 11:59:10 11:59:55 11° 56° (NE) 12:00:40 437.505
EO-79 21 Oct 12:01:48 12:06:04 74° 258° (WSW) 12:10:22 145.935-145.965
POLYITAN 1 21 Oct 12:06:51 12:11:07 66° 258° (WSW) 12:15:25 437.675
RS-15 21 Oct 12:12:22 12:20:18 22° 262° (W) 12:28:01 29.354- 29.394
SPROUT 21 Oct 12:22:58 12:26:01 19° 92° (E) 12:29:04 437.525
Oscar 19 21 Oct 12:23:45 12:28:00 27° 63° (ENE) 12:32:17 437.125/150
LO-87 21 Oct 12:24:04 12:27:42 66° 285° (WNW) 12:31:17 145.935 - 145.965
QB50P2 21 Oct 12:27:40 12:31:37 36° 263° (W) 12:35:36 145.880/145.840
NANOSAT C BR1 21 Oct 12:29:38 12:33:40 42° 261° (W) 12:37:45 145.865
DUCHIFAT 1 21 Oct 12:39:52 12:43:49 37° 262° (W) 12:47:48 145.980
BUGSAT 1 21 Oct 12:42:52 12:47:02 65° 73° (ENE) 12:51:15 437.445
nSIGHT-1 21 Oct 12:45:59 12:48:53 31° 355° (N) 12:51:47 .
BEESAT 2 21 Oct 12:54:46 12:58:36 47° 121° (ESE) 13:02:32 435.950
SO-50 21 Oct 13:02:38 13:04:45 13° 25° (NNE) 13:06:53 436.795
Gurwin Techsat 1B 21 Oct 13:02:58 13:07:55 41° 67° (ENE) 13:12:53 435.225
BEESAT 3 21 Oct 13:09:04 13:12:54 43° 313° (NW) 13:16:47 437.485
VELOX 1 21 Oct 13:15:13 13:19:29 43° 99° (E) 13:23:44 145.980
AO-85 21 Oct 13:15:46 13:19:31 48° 121° (ESE) 13:23:23 145.980
AO-7 21 Oct 13:16:08 13:22:11 23° 47° (NE) 13:28:15 .
ISS 21 Oct 13:21:43 13:24:41 30° 1° (N) 13:27:39 437.550
M-CUBED/EXP-1 PRIME 21 Oct 13:30:39 13:33:58 59° 253° (WSW) 13:37:12 437.505
ESTCUBE 1 21 Oct 13:31:06 13:34:51 26° 295° (WNW) 13:38:35 437.505/2401.250
SPROUT 21 Oct 13:58:01 14:02:08 46° 290° (WNW) 14:06:14 437.525
Oscar 19 21 Oct 14:02:09 14:07:06 46° 261° (W) 14:12:04 437.125/150
DX 1 21 Oct 14:17:52 14:22:08 49° 100° (E) 14:26:23 434.975-435.025
BUGSAT 1 21 Oct 14:20:51 14:22:50 13° 271° (W) 14:24:48 437.445
nSIGHT-1 21 Oct 14:22:35 14:25:38 40° 15° (NNE) 14:28:42 .
50 SAT 21 Oct 14:23:11 14:26:30 78° 103° (ESE) 14:29:47 437.505
BEESAT 2 21 Oct 14:33:12 14:36:34 24° 320° (NW) 14:39:56 435.950
ITAMSAT 1 21 Oct 14:37:42 14:42:12 31° 64° (ENE) 14:46:44 435.822/435.867
UKube-1 21 Oct 14:39:28 14:43:43 53° 101° (E) 14:47:57 .
SO-50 21 Oct 14:41:54 14:46:20 46° 46° (NE) 14:50:49 436.795
Gurwin Techsat 1B 21 Oct 14:43:20 14:47:58 30° 265° (W) 14:52:38 435.225
BEESAT 3 21 Oct 14:50:41 14:51:29 10° 334° (NNW) 14:52:16 437.485
VELOX 1 21 Oct 14:52:15 14:55:40 22° 296° (WNW) 14:59:05 145.980
BEESAT 21 Oct 14:53:43 14:55:15 11° 87° (E) 14:56:46 436.000
AO-85 21 Oct 14:57:00 15:00:09 23° 322° (NW) 15:03:25 145.980
ISS 21 Oct 14:58:21 15:01:34 56° 21° (NNE) 15:04:48 437.550
AO-7 21 Oct 15:05:32 15:13:50 82° 68° (ENE) 15:22:09 .
MOZHAYETS 4 21 Oct 15:33:43 15:37:50 32° 96° (E) 15:41:53
PCSat 21 Oct 15:38:55 15:43:12 23° 38° (NE) 15:47:26 145.827
CUBESAT XI-V 21 Oct 15:50:16 15:51:34 11° 87° (E) 15:52:51 437.345
DX 1 21 Oct 15:54:51 15:57:58 20° 298° (WNW) 16:01:06 434.975-435.025
nSIGHT-1 21 Oct 15:58:52 16:01:59 48° 214° (SW) 16:05:05 .
ITUPSAT 1 21 Oct 16:14:11 16:18:59 66° 102° (ESE) 16:23:44 437.325
UKube-1 21 Oct 16:16:25 16:19:21 18° 298° (WNW) 16:22:17 .
ITAMSAT 1 21 Oct 16:16:41 16:21:32 40° 262° (W) 16:26:27 435.822/435.867
SO-50 21 Oct 16:22:45 16:26:36 27° 245° (WSW) 16:30:29 436.795
BEESAT 21 Oct 16:28:52 16:33:41 89° 285° (WNW) 16:38:27 436.000
DOVE 4 21 Oct 16:33:21 16:37:16 39° 69° (ENE) 16:41:23 437.250
ISS 21 Oct 16:35:02 16:37:54 28° 219° (SW) 16:40:46 437.550
LilacSat-2 21 Oct 16:44:33 16:46:18 13° 62° (ENE) 16:48:02 437.200
XW-2D 21 Oct 16:49:47 16:51:46 14° 63° (ENE) 16:53:45 145.860 - 145.880
KKS-1 21 Oct 16:53:04 16:55:24 14° 90° (E) 16:57:42 437.445
CUTE-I 21 Oct 16:56:12 17:00:10 22° 60° (ENE) 17:04:08 437.470
AO-7 21 Oct 17:01:06 17:07:28 24° 268° (W) 17:13:54 .
XW-2B 21 Oct 17:02:34 17:05:10 18° 65° (ENE) 17:07:47 145.730 - 145.750
MOZHAYETS 4 21 Oct 17:10:56 17:14:56 30° 293° (WNW) 17:18:54
PCSat 21 Oct 17:21:47 17:27:14 81° 239° (WSW) 17:32:38 145.827
STARS 21 Oct 17:22:56 17:24:23 11° 88° (E) 17:25:49 437.465
CUBESAT XI-V 21 Oct 17:24:56 17:29:33 86° 286° (WNW) 17:34:09 437.345
XW-2C 21 Oct 17:24:59 17:28:21 31° 69° (ENE) 17:31:44 145.795 - 145.815
HO-68 21 Oct 17:30:22 17:36:07 27° 55° (NE) 17:41:54 435.675
ITUPSAT 1 21 Oct 17:53:08 17:56:19 18° 300° (WNW) 17:59:27 437.325
KAITUO 1B 21 Oct 18:04:12 18:07:54 65° 74° (ENE) 18:11:35 145.475/437.950
XW-2F 21 Oct 18:08:13 18:12:00 87° 258° (WSW) 18:15:48 145.980 - 146.000
BEESAT 21 Oct 18:08:31 18:10:44 13° 304° (WNW) 18:12:56 436.000
DOVE 4 21 Oct 18:11:56 18:15:10 21° 268° (W) 18:18:32 437.250
NUDT-PHONESAT 21 Oct 18:16:07 18:19:50 87° 77° (ENE) 18:23:34 437.300
LilacSat-2 21 Oct 18:16:19 18:20:06 61° 259° (W) 18:23:53 437.200
CUBEBUG 2 21 Oct 18:21:11 18:24:49 23° 64° (ENE) 18:28:31 437.445
XW-2D 21 Oct 18:21:48 18:25:31 54° 260° (W) 18:29:15 145.860 - 145.880
KKS-1 21 Oct 18:27:57 18:32:25 68° 287° (WNW) 18:36:52 437.445
ZACube-1 21 Oct 18:34:17 18:34:59 10° 57° (ENE) 18:35:41 437.345
CUTE-I 21 Oct 18:34:30 18:39:45 62° 258° (WSW) 18:45:04 437.470
XW-2B 21 Oct 18:35:30 18:39:05 39° 262° (W) 18:42:40 145.730 - 145.750
CUTE 1.7 + AOD 2 21 Oct 18:42:16 18:46:22 51° 72° (ENE) 18:50:28 437.475
SEEDS 21 Oct 18:47:03 18:50:52 36° 69° (ENE) 18:54:41 437.485
UWE-3 21 Oct 18:56:01 19:00:00 28° 66° (ENE) 19:03:59 435.000/436.395/437.385
STARS 21 Oct 18:56:49 19:01:17 81° 286° (WNW) 19:05:43 437.465
XW-2C 21 Oct 18:59:37 19:02:35 21° 266° (W) 19:05:33 145.795 - 145.815
CUBESAT XI-V 21 Oct 19:04:31 19:06:12 12° 303° (WNW) 19:07:52 437.345
AAUSAT CUBESAT 2 21 Oct 19:07:09 19:10:36 27° 67° (ENE) 19:14:05 437.432
Oscar 11 21 Oct 19:07:17 19:09:12 13° 59° (ENE) 19:11:08 .
PCSat 21 Oct 19:07:31 19:09:44 13° 258° (WSW) 19:11:57 145.827
HO-68 21 Oct 19:16:04 19:23:13 74° 255° (WSW) 19:30:27 435.675
XW-2A 21 Oct 19:28:22 19:31:43 58° 74° (ENE) 19:35:05 145.665 - 145.685
BEESAT 2 21 Oct 19:33:09 19:35:16 14° 31° (NNE) 19:37:23 435.950
KAITUO 1B 21 Oct 19:41:52 19:42:17 10° 271° (W) 19:42:42 145.475/437.950
AO-73 21 Oct 19:43:18 19:47:33 40° 70° (ENE) 19:51:48 145.935
YUBILEINY 21 Oct 19:44:57 19:53:14 42° 70° (ENE) 20:01:29 435.215
BEESAT 3 21 Oct 19:45:48 19:49:27 33° 44° (NE) 19:53:02 437.485
CUBEBUG 2 21 Oct 19:56:34 20:01:06 48° 262° (W) 20:05:45 437.445
AO-85 21 Oct 20:03:49 20:07:01 19° 36° (NE) 20:10:23 145.980
FO-29 21 Oct 20:05:50 20:09:47 15° 86° (E) 20:13:55 435.910
ZACube-1 21 Oct 20:05:52 20:10:27 74° 74° (ENE) 20:15:01 437.345
CUTE 1.7 + AOD 2 21 Oct 20:19:50 20:22:29 16° 269° (W) 20:25:09 437.475
DELFI C3 21 Oct 20:23:01 20:25:23 16° 63° (ENE) 20:27:45 145.870
SEEDS 21 Oct 20:23:21 20:26:38 22° 267° (W) 20:29:56 437.485
STRAND 1 21 Oct 20:26:00 20:31:12 76° 104° (ESE) 20:36:21 437.568
O/OREOS (USA 219) 21 Oct 20:31:28 20:35:53 51° 109° (ESE) 20:40:21 437.305
UWE-3 21 Oct 20:32:00 20:36:17 36° 264° (W) 20:40:38 435.000/436.395/437.385
STARS 21 Oct 20:35:45 20:36:51 11° 304° (NW) 20:37:57 437.465
Oscar 11 21 Oct 20:40:23 20:44:43 79° 256° (WSW) 20:49:05 .
AAUSAT CUBESAT 2 21 Oct 20:42:24 20:45:59 29° 265° (W) 20:49:35 437.432
EO-88 21 Oct 20:45:59 20:47:53 14° 63° (ENE) 20:49:49 145.990 - 145.960
Max Valier Satellite 21 Oct 20:57:49 21:00:54 25° 68° (ENE) 21:03:59 145.860
HO-68 21 Oct 21:08:43 21:12:10 14° 275° (W) 21:15:40 435.675
BEESAT 2 21 Oct 21:09:44 21:13:47 67° 52° (NE) 21:17:46 435.950
AO-73 21 Oct 21:20:11 21:23:53 24° 267° (W) 21:27:36 145.935
BEESAT 3 21 Oct 21:23:28 21:26:55 29° 244° (WSW) 21:30:19 437.485
UNISAT 6 21 Oct 21:31:49 21:34:13 14° 88° (E) 21:36:34 437.425
YUBILEINY 21 Oct 21:41:51 21:50:10 50° 272° (W) 21:58:31 435.215
AO-85 21 Oct 21:43:26 21:47:57 87° 235° (SW) 21:52:50 145.980
ZACube-1 21 Oct 21:45:01 21:47:13 13° 272° (W) 21:49:25 437.345
TIGRISAT 21 Oct 21:45:37 21:48:44 18° 90° (E) 21:51:47 435.000
FO-29 21 Oct 21:48:46 21:55:41 76° 104° (ESE) 22:03:18 435.910
DELFI C3 21 Oct 21:55:57 21:59:45 50° 261° (W) 22:03:34 145.870
STRAND 1 21 Oct 22:06:27 22:09:46 18° 302° (WNW) 22:13:06 437.568
PRISM 21 Oct 22:09:27 22:11:21 13° 90° (E) 22:13:15 437.425
O/OREOS (USA 219) 21 Oct 22:11:59 22:15:35 22° 309° (NW) 22:19:13 437.305
EO-88 21 Oct 22:17:36 22:21:08 50° 260° (W) 22:24:43 145.990 - 145.960
RS-15 21 Oct 22:21:09 22:25:02 12° 91° (E) 22:28:54 29.354- 29.394
Max Valier Satellite 21 Oct 22:31:28 22:34:39 26° 265° (W) 22:37:50 145.860
BEESAT 2 21 Oct 22:48:52 22:50:59 14° 250° (WSW) 22:53:05 435.950
ESTCUBE 1 21 Oct 22:55:48 23:00:03 44° 70° (ENE) 23:04:20 437.505/2401.250
LO-87 21 Oct 23:01:56 23:05:30 70° 75° (ENE) 23:09:08 145.935 - 145.965
UNISAT 6 21 Oct 23:06:49 23:11:26 69° 286° (WNW) 23:15:55 437.425
SPROUT 21 Oct 23:18:42 23:21:54 21° 64° (ENE) 23:25:07 437.525
TIGRISAT 21 Oct 23:21:15 23:25:46 54° 289° (WNW) 23:30:10 435.000
AO-85 21 Oct 23:25:51 23:27:48 12° 251° (WSW) 23:29:48 145.980
FO-29 21 Oct 23:34:46 23:40:11 26° 300° (WNW) 23:46:01 435.910
PRISM 21 Oct 23:42:56 23:47:02 63° 287° (WNW) 23:51:07 437.425
EO-79 21 Oct 23:44:58 23:47:27 15° 90° (E) 23:49:53 145.935-145.965
POLYITAN 1 21 Oct 23:49:55 23:52:42 17° 91° (E) 23:55:27 437.675
AIST 2D 21 Oct 23:59:23 00:02:49 55° 100° (E) 00:06:13 435.315
QB50P2 22 Oct 00:09:36 00:13:22 29° 95° (E) 00:17:04 145.880/145.840
NANOSAT C BR1 22 Oct 00:11:18 00:14:49 25° 94° (E) 00:18:18 145.865
VELOX 1 22 Oct 00:14:39 00:18:54 53° 71° (ENE) 00:23:11 145.980
